Starlink 35649

operational
NORAD ID: 66125 Int'l Des: 2025-237 Owner: SPXS Country: US Constellation: starlink
LEOCIRCULAR

Über Starlink 35649

Beschreibung wird geladen...

Live-Position

3D-Globus wird geladen...

Nächste Überflüge

Höhenverlauf

Altitude vs Time

uPlot chart will show altitude changes over time

Zweizeiliger Elementsatz

1 66125C 25237M 25298.72479167 -.01171600 00000+0 -19513-2 0 2988
2 66125 53.1551 319.2459 0000859 79.5262 125.1550 16.03408555 15
Epoch: 25. Okt. 2025 • Age: 151 hours

Aktueller Status

Höhe 294.6 km
Geschwindigkeit 7.74 km/s
Subsatellitenpunkt 47.83°N, 83.37°W
Startdatum 22. Okt. 2025
Alter 8 days
Typ internet

Technische Details

Klassifizierung Payload
Masse 575.00 kg
Trockenmasse 530.00 kg
Gesamtmasse 575.00 kg
Länge 0.30 m
Durchmesser 4.10 m
Spannweite 29.00 m
Form Box + pan
Hersteller SPXS
Bus-Typ Starlink V2MO
Phasenstatus In Orbit
Besitzer/Staat SPXS/US

Große Konstellationen

Loading constellations...